Regional Weather Roundup
Issued by NWS

Home | Current Version | Previous Version | Text Only | Print | Product List | Glossary Off
Versions: 1 2 3 4 5 6 7 8 9 10 11 12 13 14 15 16 17 18 19 20 21 22 23 24 25 26 27 28 29 30 31 32 33 34 35 36 37 38 39 40 41 42 43 44 45 46 47 48 49 50

000
ASUS45 KSLC 220910
RWRUT

UTAH REGIONAL WEATHER ROUNDUP
NATIONAL WEATHER SERVICE SALT LAKE CITY UT
200 AM MST MON DEC 22 2014

UTZ001>011-023>025-221000-

NORTHERN UTAH

CITY           SKY/WX    TMP DP  RH WIND       PRES   REMARKS
BRIGHAM CITY   CLOUDY    40  32  74 NE3       30.01F
HILL AFB       CLOUDY    39  35  84 SW6       30.02S WCI  35
LOGAN          CLOUDY    38  32  79 S7        29.99F WCI  33
OGDEN          CLOUDY    41  35  79 E3        30.02S
PROVO AIRPORT  CLOUDY    39  36  87 N3        30.04F
SALT LAKE CITY CLOUDY    43  34  70 NW7       30.03S
VERNAL         CLOUDY    34  30  85 CALM      29.87R
WENDOVER       CLOUDY    48  36  61 NW13      30.03S
HEBER CITY     MIX PCPN  37  32  81 SE7       29.99R WCI  32
WEST JORDAN    CLOUDY    39  39 100 CALM      30.04F

$$

UTZ012>022-026-027-221000-

SOUTHERN/CENTRAL UTAH

CITY           SKY/WX    TMP DP  RH WIND       PRES   REMARKS
BLANDING       PTCLDY    33  31  93 SE3       30.02S
BRYCE CANYON   MOCLDY    38  32  79 NW8G21    30.08S WCI  32
CEDAR CITY     PTCLDY    40  32  73 SE7       30.07F
DELTA          CLOUDY    42  40  96 E3        30.05F
MILFORD        MOCLDY    35  31  85 SW3       30.05S
MOAB/CYNLANDS  CLEAR     32  31  96 CALM      29.93R
PRICE          PTCLDY    43  28  55 NW14G33   29.91F
ST GEORGE      CLOUDY    41  34  75 CALM      30.10S
KANAB          CLEAR     32  32 100 NE6       30.12S WCI  26

$$

REGIONAL REPORTS     COLORADO/ARIZONA

CITY           SKY/WX    TMP DP  RH WIND       PRES   REMARKS
CRAIG, CO      CLOUDY    36  27  69 W13G23    29.85R WCI  27
GRAND JUNCTION CLOUDY    32  31  96 CALM      29.88S
RIFLE          CLOUDY    35  32  88 W14       29.86R WCI  26
MONTROSE       CLOUDY    30  29  96 SE7       29.91S WCI  23
CORTEZ         CLEAR     31  28  89 N6        29.96R WCI  25
PAGE, AZ       PTCLDY    39  31  72 CALM      30.00F
GRAND CANYON   PTCLDY    27  25  92 CALM      30.12F
KINGMAN        PTCLDY    38  34  85 CALM      30.08F
FLAGSTAFF      MOCLDY    41  31  67 SW3       30.11F

$$

REGIONAL REPORTS    NEVADA/IDAHO/WYOMING

CITY           SKY/WX    TMP DP  RH WIND       PRES   REMARKS
LAS VEGAS, NV  CLOUDY    47  39  74 S8        30.04S
ELY            CLOUDY    45  37  73 CALM      30.17F
ELKO           MOCLDY    44  41  89 SW7       30.11F
POCATELLO, ID  CLOUDY    35  35 100 SW24      29.97F WCI  23
BURLEY         PTCLDY    36  32  85 W17G28    30.01S WCI  26
EVANSTON, WY   CLOUDY    31  28  89 W10       29.97R WCI  22
ROCK SPRINGS   PTCLDY    28  22  78 W18       29.85R WCI  15
KEMMERER       CLOUDY    30  27  86 W25       29.92R WCI  16

$$



USA.gov is the U.S. government's official web portal to all federal, state and local government web resources and services.